Regional Weather Roundup
Issued by NWS Cleveland, OH

Home | Current Version | Previous Version | Graphics & Text | Print | Product List | Glossary On
Versions: 1 2 3 4 5 6 7 8 9 10 11 12 13 14 15 16 17 18 19 20 21 22 23 24 25 26 27 28 29 30 31 32 33 34 35 36 37 38 39 40 41 42 43 44 45 46 47 48 49 50
000
ASUS41 KCLE 281812
RWRCLE
OHIO REGIONAL WEATHER ROUNDUP
NATIONAL WEATHER SERVICE WILMINGTON, OH
200 PM EDT WED SEP 28 2016

NOTE: "FAIR" INDICATES FEW OR NO CLOUDS BELOW 12,000 FEET WITH NO
SIGNIFICANT WEATHER AND/OR OBSTRUCTIONS TO VISIBILITY.

OHZ001>008-015>018-024>027-034-035-043-044-281900-
   NORTHWEST OHIO

CITY           SKY/WX    TMP DP  RH WIND       PRES   REMARKS
DEFIANCE       FAIR      63  51  65 CALM      29.85F
FINDLAY        CLOUDY    63  53  70 S9        29.85F
TOLEDO EXPRESS CLOUDY    58  54  86 VRB3      29.88S
TOLEDO EXEC    CLOUDY    60  56  86 SE14      29.89S
LIMA           LGT RAIN  60  56  86 S7        29.86R
$$

OHZ009>014-019>023-028>033-038-089-281900-
   NORTHEAST OHIO

CITY           SKY/WX    TMP DP  RH WIND       PRES   REMARKS
CLE-HOPKINS    CLOUDY    65  49  56 SW12      29.96R
CLE-LAKEFRONT  PTSUNNY   65  51  60 NW5       29.93R
CUY CO. ARPT   PTSUNNY   68  55  64 N6        29.94R
LORAIN-ELYRIA  LGT RAIN  58  52  80 S7        29.95R
ASHTABULA      FAIR      70  49  47 SE13      29.96S
AKRON-CANTON   PTSUNNY   70  44  39 S9        29.92R
WOOSTER        PTSUNNY  N/A N/A N/A NW8       29.95R
MANSFIELD      CLOUDY    55  55 100 E9        29.91R
YOUNGSTOWN     PTSUNNY   71  49  45 SE12G20   29.94S
$$

OHZ042-051>053-060>062-070>072-077>081-281900-
  SOUTHWEST OHIO

CITY           SKY/WX    TMP DP  RH WIND       PRES   REMARKS
CINC-COVINGTON RAIN      57  57 100 SW5       29.85R FOG
CINC-LUNKEN    RAIN      60  58  92 S12       29.85S
HAMILTON       LGT RAIN  58  56  93 N7        29.87F FOG
DAYTON         RAIN      57  55  93 E5        29.88R FOG
WRIGHT-PAT AFB LGT RAIN  59  57  92 NE6       29.88R FOG
DAYTON GENERAL HVY RAIN  57  54  89 E5        29.87R FOG
WILMINGTON     LGT RAIN  57  54  89 SE5       29.86S
$$

OHZ036-037-039>041-045>050-054>059-063>069-073>076-082>088-281900-
  CENTRAL AND SOUTHEAST OHIO

CITY           SKY/WX    TMP DP  RH WIND       PRES   REMARKS
COLUMBUS       CLOUDY    58  57  97 E7        29.87F
OSU AIRPORT    LGT RAIN  58  56  93 E10       29.87S
BOLTON FIELD   RAIN      57  55  94 CALM      29.89R
RICKENBACK AFB CLOUDY    58  55  91 E7        29.87F
NEWARK         CLOUDY    57  54  89 NE6       29.89F
MARION         PTSUNNY   60  53  77 SE15      29.87F
LANCASTER      CLOUDY    59  55  87 E6        29.89F
ZANESVILLE     PTSUNNY   61  48  62 N8        29.90F
NEW PHILLY     FAIR      72  43  35 S6        29.92R
$$




USA.gov is the U.S. government's official web portal to all federal, state and local government web resources and services.